Topeka, KS

6:30 PM CDT on April 30, 2017 (GMT -0500)
Billard Municipal

Weather History for KTOP - October, 2014

Change the Weather History Date:

Tuesday, October 14, 2014

  Actual Average Record
Temperature  
Mean Temperature 59 °F 57 °F  
Max Temperature 69 °F 69 °F 92 °F (1938)
Min Temperature 48 °F 45 °F 26 °F (2006)
Degree Days  
Heating Degree Days 6 9  
Month to date heating degree days 88 98  
Since 1 July heating degree days 137 165  
Cooling Degree Days 0 1  
Month to date cooling degree days 12 20  
Year to date cooling degree days 1595 1413  
Growing Degree Days 10 (Base 50)    
Moisture  
Dew Point 41 °F    
Average Humidity 51    
Maximum Humidity 71    
Minimum Humidity 31    
Precipitation  
Precipitation 0.00 in 0.10 in 1.18 in (1930)
Month to date precipitation 3.21 1.48  
Year to date precipitation 27.19 31.71  
Snow  
Snow 0.00 in 0.00 in T in (1965)
Month to date snowfall 0.0 0.1  
Year to date snowfall 23.1 11.4  
Since 1 July snowfall T 0.1  
Snow Depth 0.00 in    
Sea Level Pressure  
Sea Level Pressure 29.86 in    
Wind  
Wind Speed 16 mph (NW)    
Max Wind Speed 30 mph    
Max Gust Speed 42 mph    
Visibility 10 miles    
Events      
T = Trace of Precipitation, MM = Missing Value Source: NWS Daily Summary

Daily Weather History Graph

Daily Weather History Graph

Search for Another Location

Airport or City:

Trip Planner

Search our weather history database for the weather conditions in past years. The results will help you decide how hot, cold, wet, or windy it might be!

Date:

Astronomy

Oct. 14, 2014 Rise Set
Actual Time 7:31 AM CDT 6:45 PM CDT
Civil Twilight 7:04 AM CDT 7:12 PM CDT
Nautical Twilight 6:33 AM CDT 7:43 PM CDT
Astronomical Twilight 6:02 AM CDT 8:13 PM CDT
Moon 11:53 PM CDT (10/14) 1:31 PM CDT (10/14)
Length of Visible Light 12h 07m
Length of Day
11h 14m
Waning Gibbous, 61% of the Moon is Illuminated
Oct 14
Waning Gibbous
Oct 15
Last Quarter
Oct 23
New
Oct 30
First Quarter
Nov 6
Full

Hourly Weather History & Observations

Time (CDT) Temp. Dew Point Humidity Pressure Visibility Wind Dir Wind Speed Gust Speed Precip Events Conditions
12:53 AM 57.9 °F 45.0 °F 62% 29.72 in 10.0 mi NW 17.3 mph 27.6 mph N/A   Overcast
1:53 AM 57.0 °F 45.0 °F 64% 29.73 in 10.0 mi NW 17.3 mph 25.3 mph N/A   Overcast
2:53 AM 57.0 °F 45.0 °F 64% 29.73 in 10.0 mi NW 17.3 mph 31.1 mph N/A   Overcast
3:53 AM 57.2 °F 44.6 °F 63% 29.75 in 10.0 mi NW 17.3 mph 24.2 mph N/A   Overcast
4:53 AM 54.0 °F 43.0 °F 66% 29.76 in 10.0 mi WNW 13.8 mph - N/A   Clear
5:53 AM 52.0 °F 42.1 °F 69% 29.78 in 10.0 mi WNW 16.1 mph 26.5 mph N/A   Clear
6:53 AM 52.0 °F 42.1 °F 69% 29.80 in 10.0 mi WNW 16.1 mph 23.0 mph N/A   Clear
7:53 AM 52.0 °F 42.1 °F 69% 29.82 in 10.0 mi NW 17.3 mph 25.3 mph N/A   Clear
8:53 AM 55.0 °F 42.1 °F 62% 29.84 in 10.0 mi NW 19.6 mph 26.5 mph N/A   Clear
9:53 AM 59.0 °F 42.8 °F 55% 29.87 in 10.0 mi NW 23.0 mph 33.4 mph N/A   Clear
10:53 AM 62.1 °F 42.1 °F 48% 29.87 in 10.0 mi NNW 20.7 mph 31.1 mph N/A   Clear
11:53 AM 64.9 °F 39.9 °F 40% 29.88 in 10.0 mi NNW 25.3 mph 40.3 mph N/A   Clear
12:53 PM 66.0 °F 39.9 °F 38% 29.88 in 10.0 mi NNW 25.3 mph 33.4 mph N/A   Clear
1:53 PM 66.9 °F 39.9 °F 37% 29.88 in 10.0 mi NW 25.3 mph 34.5 mph N/A   Clear
2:53 PM 68.0 °F 37.9 °F 33% 29.87 in 10.0 mi NNW 25.3 mph 35.7 mph N/A   Clear
3:53 PM 69.1 °F 37.9 °F 32% 29.87 in 10.0 mi NNW 21.9 mph 33.4 mph N/A   Clear
4:53 PM 68.0 °F 37.0 °F 32% 29.89 in 10.0 mi NW 19.6 mph 28.8 mph N/A   Clear
5:53 PM 66.0 °F 37.0 °F 34% 29.91 in 10.0 mi NW 16.1 mph 28.8 mph N/A   Clear
6:53 PM 62.1 °F 37.0 °F 39% 29.92 in 10.0 mi NW 9.2 mph - N/A   Clear
7:53 PM 55.9 °F 37.9 °F 51% 29.95 in 10.0 mi NW 6.9 mph - N/A   Clear
8:53 PM 57.0 °F 37.9 °F 49% 29.97 in 10.0 mi West 8.1 mph - N/A   Clear
9:53 PM 54.0 °F 37.9 °F 55% 29.98 in 10.0 mi NW 4.6 mph - N/A   Clear
10:53 PM 53.1 °F 37.9 °F 57% 29.99 in 10.0 mi WNW 6.9 mph - N/A   Clear
11:53 PM 50.0 °F 37.9 °F 63% 29.99 in 10.0 mi NW 8.1 mph - N/A   Clear